Location: General Nathan Twining Observatory
(34.5931°N, 106.8201°W)
Time: 04:10:56
(UTC-06:00)

Daily predictions for brighter satellites

Satellite Brightness Start Highest point End
(mag) Time Altitude Azimuth Time Altitude Azimuth Time Altitude Azimuth
Cosmos 2369 Rocket 3.3 00:08:35 40° N 00:08:35 40° N 00:12:10 10° NNE
NOSS 3-1 (C) 4.0 00:00:53 10° NNW 00:08:26 84° NNE 00:08:26 84° NNE
Terra 4.2 00:14:33 17° WNW 00:14:33 17° WNW 00:16:22 10° NW
USA 234 4.2 00:07:06 10° NNE 00:13:13 44° NW 00:17:23 20° W
Cosmos 1943 Rocket 3.8 00:41:12 30° NNE 00:41:12 30° NNE 00:43:53 10° NNE
Lacrosse 5 4.2 00:43:14 18° NW 00:44:20 19° NW 00:47:54 10° N
ATLAS 2AS CENTAUR R/B 3.4 01:43:26 10° NW 01:49:31 53° NW 01:49:31 53° NW
ATLAS 3B CENTAUR R/B 4.2 01:53:28 63° SSW 01:55:37 69° S 02:26:16 10° E
CZ-2C R/B 4.4 01:53:27 10° N 01:56:10 26° NNW 01:56:10 26° NNW
Cosmos 2227 Rocket 3.6 02:04:23 10° N 02:09:14 32° ENE 02:09:14 32° ENE
ATLAS CENTAUR R/B 3.5 02:29:31 30° NE 02:29:31 30° NE 02:32:07 10° NE
Cosmos 2297 Rocket 3.5 02:25:28 10° N 02:30:35 34° ENE 02:31:06 33° ENE
SeaSat 1 3.9 02:37:47 33° NNW 02:37:47 33° NNW 02:40:28 10° NNW
Cosmos 1464 Rocket 4.0 03:00:13 75° NNW 03:00:13 75° NNW 03:06:02 10° N
Cosmos 1656 3.9 03:05:09 68° NNE 03:05:09 68° NNE 03:10:03 10° NNE
Milstar 3 Cent rocket 3.7 03:13:35 26° ESE 03:13:35 26° ESE 03:16:43 10° ESE
Cosmos 1898 Rocket 4.1 03:06:57 10° NNW 03:10:56 51° NNW 03:10:56 51° NNW
IRAS Rocket 4.3 03:06:57 10° NNE 03:12:08 76° N 03:12:08 76° N
Cosmos 841 Rocket 4.0 03:13:08 55° E 03:13:08 55° E 03:17:49 10° NNE
NOSS 3-4 (A) 4.2 03:07:28 10° NNW 03:14:27 61° ENE 03:21:48 10° SE
NOSS 3-4 (C) 4.2 03:07:34 10° NNW 03:14:35 61° NE 03:21:58 10° SE
SL-08 R/B 4.4 03:18:16 37° NNW 03:18:16 37° NNW 03:21:05 10° NNW
Cosmos 1763 Rocket 3.7 03:18:14 66° NE 03:18:14 66° NE 03:22:49 10° NNE
BREEZE-M DEB (TANK) 4.1 03:10:14 10° NW 03:15:50 37° NW 03:15:50 37° NW
IRS-1C 4.2 03:12:38 10° NNE 03:17:23 71° N 03:17:23 71° N
CZ-2D R/B 3.3 03:13:13 10° NNE 03:18:09 34° E 03:19:03 32° ESE
Cosmos 1937 Rocket 3.7 03:16:42 10° NNW 03:21:16 67° N 03:21:16 67° N
Geosat 4.2 03:16:58 10° NNE 03:21:21 65° N 03:21:21 65° N
Cosmos 1953 4.2 03:23:35 26° E 03:23:35 26° E 03:26:46 10° NNE
ATLAS CENTAUR R/B 4.5 03:24:42 37° SSE 03:28:26 56° ESE 03:51:51 10° NE
CZ-3 R/B 4.4 03:16:56 35° SW 03:33:24 53° SSE 03:45:08 10° E
Cosmos 1697 Rocket 2.7 03:34:48 68° WNW 03:34:48 68° WNW 03:40:28 10° NNE
ARIANE 5 R/B 2.5 03:34:32 10° NNE 03:39:42 77° ESE 03:40:03 73° SE
ERS-1 4.4 03:37:42 10° N 03:42:37 74° WNW 03:42:37 74° WNW
Cosmos-2242 3.6 03:43:21 51° E 03:43:23 51° E 03:47:34 10° NNE
Cosmos 1980 Rocket 2.0 03:43:10 72° S 03:43:46 84° ESE 03:49:26 10° NNE
OAO 1 4.4 03:46:35 74° W 03:47:05 88° S 03:52:34 10° E
Okean O Rocket 3.7 03:45:00 10° NE 03:48:22 21° E 03:50:30 15° SE
ADEOS 3.9 03:44:52 10° N 03:49:54 50° WNW 03:49:54 50° WNW
Cosmos 2227 Rocket 3.7 03:48:31 10° NW 03:50:59 22° WNW 03:50:59 22° WNW
Resurs 1-4 Rocket 2.1 03:48:30 10° NNE 03:53:47 79° ESE 03:54:50 57° S
Cosmos 1408 Rocket 3.5 03:50:59 10° N 03:55:21 87° NNE 03:55:21 87° NNE
Cosmos 2322 Rocket 3.2 03:54:04 26° SSE 03:56:26 38° ESE 04:01:35 10° NE
Cosmos 1766 Rocket 3.4 03:55:35 10° N 04:00:01 89° W 04:00:12 83° S
Spot 4 Rocket 4.4 03:55:20 10° N 04:00:14 45° WNW 04:00:27 45° W
ATLAS CENTAUR R/B 3.7 04:05:51 17° WNW 04:06:40 17° NW 04:09:58 10° N
IRS-1D 3.5 04:05:05 10° N 04:09:56 57° WNW 04:10:39 51° WSW
Nadezhda 4 Rocket 4.2 04:05:58 10° NNW 04:11:56 51° W 04:13:26 42° SW
Cosmos 1378 4.4 04:10:13 10° NNW 04:12:32 30° NW 04:12:32 30° NW
Cosmos 2297 Rocket 3.5 04:09:43 10° NW 04:12:50 24° WNW 04:12:50 24° WNW
Cosmos 1470 4.0 04:13:25 25° SE 04:15:10 38° E 04:18:52 10° NNE
SL-16 R/B 2.4 04:12:48 30° S 04:15:59 68° WSW 04:22:08 10° NNW
Cosmos 1842 Rocket 3.9 04:16:21 34° SSE 04:18:11 64° E 04:22:37 10° NNE
CZ-2D R/B 3.6 04:18:20 10° NNE 04:22:43 83° E 04:24:19 40° S
Cosmos 1655 Rocket 4.2 04:19:04 10° N 04:25:29 74° E 04:31:51 10° SSE
Cosmos 1461 4.1 04:22:21 10° NNW 04:26:14 41° ENE 04:29:59 10° SE
GPS 2-04 Rocket1 2.6 04:25:18 48° WNW 04:26:20 86° N 04:30:13 10° E
PSLV R/B 4.2 04:23:26 10° NNE 04:27:12 57° E 04:28:42 32° SSE
SL-16 R/B 2.3 04:27:23 27° S 04:30:31 74° ESE 04:36:11 10° NNE
Cosmos 2360 4.4 04:29:01 36° WSW 04:31:06 55° WNW 04:36:43 10° NNE
SL-24 R/B - RUBIN 2 4.3 04:32:06 34° SW 04:34:39 72° WNW 04:40:57 10° NNE
USA 81 4.0 04:36:46 26° SSW 04:39:46 70° W 04:45:03 10° N
CZ-3A R/B 4.5 04:32:26 18° WSW 04:40:38 37° NW 04:45:19 10° NNE
Cosmos 332 Rocket 3.9 04:39:15 34° SW 04:41:04 55° WNW 04:45:50 10° N
Cosmos 2026 Rocket 3.9 04:36:33 10° N 04:42:51 75° W 04:49:02 10° S
UNKNOWN OBJECT B 3.4 04:39:18 10° N 04:42:51 36° WNW 04:43:29 33° W
Cosmos 372 Rocket 4.1 04:38:05 10° NNW 04:43:11 76° ENE 04:48:16 10° SSE
MTI 3.9 04:43:26 48° SW 04:43:45 51° W 04:46:59 10° NNW
CZ-4B R/B 3.2 04:40:25 10° NNE 04:44:12 56° E 04:46:50 17° S
Cosmos 2263 Rocket 4.2 04:40:59 10° N 04:45:51 30° ENE 04:50:41 10° ESE
Cosmos 1437 3.1 04:42:59 10° NNW 04:46:10 42° W 04:46:21 42° WSW
EO 1 Del DPAF 4.2 04:50:30 28° W 04:50:32 28° W 04:53:56 10° NW
Cosmos 2151 3.9 04:46:39 10° N 04:50:52 50° E 04:55:02 10° SSE
Cosmos 1733 3.0 04:50:29 23° S 04:52:44 83° W 04:56:33 10° N
DELTA 2 R/B (1) 3.6 04:52:10 25° WSW 04:55:29 76° SSE 05:01:05 10° ENE
CZ-4B R/B 3.1 04:49:58 10° NNE 04:55:31 87° WNW 05:00:25 13° SSW
Cosmos 1544 4.0 04:56:30 27° WSW 04:57:16 30° W 05:00:32 10° NNW
CZ-2D R/B 3.3 04:53:35 10° NNW 04:58:00 26° WNW 05:00:23 19° WSW
Cosmos 1953 4.0 04:59:22 17° W 04:59:47 17° WNW 05:02:29 10° NNW
PAYLOAD B 4.2 04:54:28 10° N 05:00:04 76° WNW 05:05:10 13° SSW
IRS-1C Rocket 4.2 04:55:01 10° N 05:00:09 56° WNW 05:04:01 18° SW
Cosmos 371 Rocket 3.5 04:57:26 23° SW 05:00:15 54° WNW 05:04:58 10° N
Cosmos 1125 Rocket 3.9 04:55:32 10° NNW 05:00:22 40° W 05:05:11 10° S
ISS -1.2 05:02:45 13° S 05:02:45 13° S 05:03:18 10° S
ADEOS II 3.4 04:56:14 10° NNE 05:01:07 38° E 05:05:57 10° SSE
Delta 128 4.4 05:01:01 23° SW 05:03:07 35° S 05:07:28 10° ESE
Cosmos 1328 4.1 05:01:50 10° N 05:05:52 70° E 05:09:52 10° SSE
Cosmos 1500 Rocket 3.9 05:02:48 10° NNW 05:06:56 42° W 05:10:38 12° SSW
GEOS 3 Rocket 3.9 05:07:57 10° SSE 05:12:56 45° WSW 05:17:54 10° NW
CZ-2C R/B 4.0 05:10:30 10° S 05:15:02 48° W 05:19:31 10° NNW
Aureole 3 4.4 05:15:17 10° N 05:19:56 68° E 05:25:54 10° SSE
Cosmos 2221 2.4 05:17:46 10° SSW 05:22:01 71° W 05:26:19 10° N
BREEZE-M DEB (TANK) 4.0 05:09:08 13° SW 05:24:12 85° NW 05:28:28 10° NE
Okean O Rocket 2.7 05:20:56 10° NNW 05:24:41 28° WNW 05:27:58 12° SW
Cosmos 1674 3.6 05:23:06 10° NNW 05:26:20 28° W 05:29:32 10° SSW
Abrixas 2.8 05:23:29 10° WNW 05:26:25 43° SW 05:29:20 10° SSE
Cosmos 1346 4.0 05:23:31 10° N 05:26:29 52° E 05:29:27 10° SSE
Cosmos 2360 Rocket 2.2 05:22:38 10° SSW 05:28:15 87° ESE 05:33:55 10° NNE
Cosmos 1980 Rocket 4.2 05:26:07 10° WNW 05:28:28 13° NW 05:30:50 10° NNW
GRACE-1 4.5 05:26:23 10° SSW 05:29:05 38° W 05:31:49 10° NNW
GRACE-2 4.5 05:26:49 10° SSW 05:29:31 38° W 05:32:14 10° NNW
Cosmos 1633 Rocket 4.4 05:25:42 10° N 05:29:54 44° E 05:34:07 10° SSE
Alouette 2 Rocket 4.0 05:28:33 10° N 05:32:14 66° E 05:37:05 10° SSE
Resurs 1-4 Rocket 4.1 05:31:25 10° NW 05:32:53 11° WNW 05:34:20 10° WNW
Cosmos 2058 2.9 05:31:44 10° N 05:35:58 73° W 05:40:08 10° S
Delta 2 Rocket 4.0 05:33:59 10° SW 05:37:17 37° SSE 05:41:03 10° E
Meteor 2-1 Rocket 4.2 05:33:19 10° SSW 05:38:57 70° W 05:44:32 10° N
Cosmos 1680 Rocket 3.8 05:34:06 10° S 05:39:16 73° ESE 05:44:30 10° NNE
Meteor 1-11 4.2 05:33:57 10° NNW 05:39:34 78° W 05:45:15 10° S
Cosmos 2322 Rocket 3.4 05:35:58 10° WSW 05:40:31 25° WNW 05:45:06 10° N
Cosmos 1437 Rocket 3.9 05:37:17 10° SSE 05:40:55 45° E 05:44:36 10° NNE
RESURS DK-1 3.5 05:38:37 10° NW 05:41:56 24° WSW 05:45:14 10° SSW
Meteor PRIRODA 3.6 05:39:34 10° N 05:43:15 79° W 05:46:55 10° SSW
Thor Agena Rocket 3.9 05:38:45 10° S 05:43:27 40° W 05:48:11 10° NNW
Milstar 3 Cent rocket 3.5 05:43:07 10° WSW 05:48:41 45° S 05:58:56 10° ESE
PSLV R/B 3.9 05:45:19 10° N 05:49:23 46° WNW 05:53:28 10° SSW
Cosmos 405 4.3 05:46:57 10° SSE 05:50:24 45° E 05:53:52 10° NNE
Feng Yun 1-1 Rocket 4.3 05:46:14 10° N 05:51:44 62° WNW 05:57:05 10° SSW
CZ-3 Stage 3 3.6 05:32:21 10° W 05:54:35 50° SSW 05:59:19 10° SE
